Location: D�derode
(51.8092°N, 10.1065°E)
Time: 02:06:37
(UTC+00:00)

Cosmos 1812 - Pass Details

Date: 18 April 2021
Orbit: 516 x 519 km, 82.5° (Epoch: 10 May)

Event Time Altitude Azimuth Distance (km) Brightness Sun altitude
Exits shadow 23:10:14 26° 50° (NE) 1,044 4.5 -27.0°
Drops below altitude 10° 23:12:24 10° 26° (NNE) 1,765 6.2 -27.0°
Sets 23:14:39 0° 18° (NNE) 2,659 7.4 -27.0°
